TimeCST,TemperatureF,Dew PointF,Humidity,Sea Level PressureIn,VisibilityMPH,Wind Direction,Wind SpeedMPH,Gust SpeedMPH,PrecipitationIn,Events,Conditions,WindDirDegrees,DateUTC
12:34 AM,64.4,64.4,100,29.96,1.8,South,4.6,-,N/A,,Partly Cloudy,180,2012-11-26 06:34:00
12:47 AM,64.4,62.6,94,29.96,3.0,South,6.9,-,N/A,,Clear,190,2012-11-26 06:47:00
12:53 AM,64.9,64.0,97,29.96,7.0,South,6.9,-,N/A,,Partly Cloudy,190,2012-11-26 06:53:00
1:53 AM,69.1,66.9,93,29.95,10.0,SSW,8.1,-,N/A,,Partly Cloudy,200,2012-11-26 07:53:00
2:53 AM,68.0,66.9,96,29.95,10.0,SSW,4.6,-,N/A,,Clear,210,2012-11-26 08:53:00
3:37 AM,64.4,64.4,100,29.95,1.2,Calm,Calm,-,N/A,,Partly Cloudy,0,2012-11-26 09:37:00
3:39 AM,64.4,64.4,100,29.95,0.8,Calm,Calm,-,N/A,,Mist,0,2012-11-26 09:39:00
3:53 AM,64.0,64.0,100,29.95,0.5,Calm,Calm,-,N/A,Fog,Fog,0,2012-11-26 09:53:00
4:03 AM,62.6,62.6,100,29.95,0.2,Calm,Calm,-,N/A,Fog,Fog,0,2012-11-26 10:03:00
4:44 AM,62.6,62.6,100,29.95,0.5,Calm,Calm,-,N/A,Fog,Fog,0,2012-11-26 10:44:00
4:53 AM,63.0,62.1,97,29.95,0.2,Calm,Calm,-,N/A,Fog,Fog,0,2012-11-26 10:53:00
5:12 AM,60.8,60.8,100,29.96,0.2,Calm,Calm,-,N/A,Fog,Fog,0,2012-11-26 11:12:00
5:50 AM,60.8,60.8,100,29.97,0.2,Calm,Calm,-,N/A,Fog,Fog,0,2012-11-26 11:50:00
5:53 AM,61.0,60.1,97,29.97,0.5,Calm,Calm,-,N/A,Fog,Fog,0,2012-11-26 11:53:00
5:57 AM,60.8,60.8,100,29.97,0.2,Calm,Calm,-,N/A,Fog,Fog,0,2012-11-26 11:57:00
6:16 AM,60.8,59.0,94,29.98,0.2,Calm,Calm,-,N/A,Fog,Fog,0,2012-11-26 12:16:00
6:53 AM,61.0,60.1,97,29.99,0.2,Calm,Calm,-,N/A,Fog,Fog,0,2012-11-26 12:53:00
7:53 AM,63.0,63.0,100,30.01,0.2,Calm,Calm,-,N/A,Fog,Fog,0,2012-11-26 13:53:00
8:26 AM,66.2,66.2,100,30.02,0.5,Calm,Calm,-,N/A,Fog,Fog,0,2012-11-26 14:26:00
8:35 AM,66.2,66.2,100,30.02,1.8,Calm,Calm,-,N/A,,Overcast,0,2012-11-26 14:35:00
8:39 AM,66.2,66.2,100,30.02,3.0,Calm,Calm,-,N/A,,Overcast,0,2012-11-26 14:39:00
8:53 AM,68.0,68.0,100,30.03,7.0,Calm,Calm,-,N/A,,Overcast,0,2012-11-26 14:53:00
9:41 AM,71.6,69.8,94,30.03,10.0,SSW,4.6,-,N/A,,Mostly Cloudy,200,2012-11-26 15:41:00
9:53 AM,73.9,69.1,85,30.03,10.0,SSW,9.2,-,N/A,,Scattered Clouds,200,2012-11-26 15:53:00
10:53 AM,77.0,68.0,74,30.02,10.0,SSW,12.7,18.4,N/A,,Partly Cloudy,210,2012-11-26 16:53:00
11:53 AM,81.0,66.0,60,30.00,10.0,SSW,11.5,21.9,N/A,,Mostly Cloudy,200,2012-11-26 17:53:00
12:12 PM,80.6,66.2,61,29.99,10.0,SSW,10.4,23.0,N/A,,Mostly Cloudy,210,2012-11-26 18:12:00
12:35 PM,82.4,66.2,58,29.98,10.0,SSW,12.7,24.2,N/A,,Mostly Cloudy,210,2012-11-26 18:35:00
12:42 PM,80.6,66.2,61,29.98,10.0,SSW,15.0,21.9,N/A,,Mostly Cloudy,210,2012-11-26 18:42:00
12:53 PM,81.0,66.0,60,29.98,10.0,SSW,15.0,20.7,N/A,,Mostly Cloudy,210,2012-11-26 18:53:00
1:53 PM,82.0,66.0,58,29.96,10.0,SSW,13.8,23.0,N/A,,Scattered Clouds,200,2012-11-26 19:53:00
2:53 PM,80.1,66.0,62,29.96,10.0,South,16.1,23.0,N/A,,Scattered Clouds,190,2012-11-26 20:53:00
3:53 PM,78.1,66.0,66,29.96,10.0,SSW,10.4,-,N/A,,Partly Cloudy,210,2012-11-26 21:53:00
4:53 PM,75.9,66.9,74,29.98,10.0,South,8.1,-,N/A,,Clear,190,2012-11-26 22:53:00
5:53 PM,72.0,66.9,84,29.99,10.0,South,5.8,-,N/A,,Clear,190,2012-11-26 23:53:00
6:53 PM,69.1,66.9,93,30.01,10.0,South,4.6,-,N/A,,Clear,190,2012-11-27 00:53:00
7:53 PM,69.1,66.9,93,30.02,9.0,South,4.6,-,N/A,,Clear,190,2012-11-27 01:53:00
8:53 PM,69.1,66.9,93,30.04,9.0,SSW,3.5,-,N/A,,Clear,200,2012-11-27 02:53:00
9:53 PM,70.0,68.0,93,30.06,8.0,SW,3.5,-,N/A,,Partly Cloudy,220,2012-11-27 03:53:00
10:53 PM,69.1,68.0,96,30.07,7.0,Calm,Calm,-,N/A,,Mostly Cloudy,0,2012-11-27 04:53:00
11:53 PM,68.0,66.9,96,30.06,5.0,Calm,Calm,-,N/A,,Partly Cloudy,0,2012-11-27 05:53:00